Tracking 27420 objects as of 28-May-2023
HD Live streaming from Space Station
objects crossing your sky now

STARLINK-5852

Track STARLINK-5852 now!
10-day predictions
STARLINK-5852 is classified as:


NORAD ID: 55933
Int'l Code: 2023-037V
Perigee: 363.9 km
Apogee: 368.8 km
Inclination: 70.0 °
Period: 91.7 minutes
Semi major axis: 6737 km
RCS: Unknown
Launch date: March 17, 2023
Source: United States (US)
Launch site: AIR FORCE WESTERN TEST RANGE (AFWTR)
Your satellite tracking list
Your tracking list is empty




NASA's NSSDC Master Catalog

Two Line Element Set (TLE):
1 55933U 23037V   23147.95927214 -.00008489  00000-0 -69009-4 0  9995
2 55933  69.9995 340.9189 0003599 264.6485  95.4300 15.69884937 11361
Source of the keplerian elements: AFSPC